DW6610 Weather Reports


Display with metric or nautical units.
time (UTC)temp
F
wind
direction
speed
MPH
gust
MPH
rain 1hr
in
rain 24hr
in
rain mn
in
humidity
%
barometer
mb
20260506191551 56 179 1.0 3.0 0.00 1.67 1.67 93 1016.0
20260506191052 55 260 0.0 1.0 0.00 1.67 1.67 92 1016.1
20260506190551 55 141 0.0 3.0 0.00 1.67 1.67 93 1016.3
20260506190052 55 111 0.0 4.0 0.00 1.67 1.67 93 1016.4
20260506185553 55 93 0.0 4.0 0.00 1.69 1.67 93 1016.2
20260506185052 55 177 1.0 3.0 0.00 1.69 1.67 93 1015.9
20260506184554 55 141 1.0 3.0 0.00 1.69 1.67 94 1015.7
20260506184053 55 0 0.0 3.0 0.00 1.69 1.67 93 1015.5
20260506183552 55 188 0.0 5.0 0.00 1.69 1.67 93 1015.7
20260506183055 55 129 0.0 5.0 0.00 1.69 1.67 94 1015.8
20260506182551 55 137 1.0 3.0 0.00 1.69 1.67 94 1015.6
20260506182053 55 158 1.0 4.0 0.00 1.69 1.67 94 1015.6
20260506181553 55 162 0.0 4.0 0.00 1.69 1.67 95 1015.6
20260506181053 55 129 1.0 5.0 0.00 1.69 1.67 95 1015.7
20260506180552 55 179 1.0 5.0 0.00 1.69 1.67 95 1015.7
20260506180105 55 108 1.0 4.0 0.00 1.69 1.67 97 1015.5
20260506175553 55 108 1.0 4.0 0.00 1.70 1.67 97 1015.6
20260506175051 54 120 1.0 4.0 0.00 1.70 1.67 97 1015.5
20260506174555 54 118 1.0 4.0 0.00 1.70 1.67 97 1015.2
20260506174049 53 181 1.0 3.0 0.00 1.70 1.67 97 1015.5
20260506173552 53 124 0.0 3.0 0.00 1.70 1.67 97 1015.7
20260506173107 53 139 0.0 4.0 0.04 1.70 1.67 97 1015.7
20260506172553 53 169 1.0 5.0 0.05 1.70 1.67 97 1015.5
20260506172051 53 144 1.0 5.0 0.05 1.70 1.67 97 1015.8
20260506171557 53 100 0.0 5.0 0.07 1.70 1.67 98 1016.0
20260506171049 53 155 2.0 5.0 0.06 1.69 1.66 98 1015.9
20260506170549 52 146 1.0 4.0 0.06 1.69 1.66 97 1015.8
20260506170058 52 149 1.0 3.0 0.06 1.69 1.66 97 1015.9
20260506165549 52 147 1.0 3.0 0.06 1.84 1.66 98 1016.0
20260506165049 52 141 0.0 4.0 0.06 1.83 1.65 98 1016.0
20260506164553 52 110 0.0 4.0 0.05 1.82 1.64 98 1015.8
20260506164051 52 122 1.0 4.0 0.05 1.81 1.63 97 1016.3
20260506163549 52 116 1.0 4.0 0.05 1.81 1.63 98 1015.7
20260506163053 51 115 0.0 3.0 0.06 1.81 1.63 98 1015.5
20260506162553 51 149 1.0 4.0 0.05 1.80 1.62 98 1015.6
20260506162051 51 109 1.0 4.0 0.06 1.80 1.62 98 1015.5
20260506161557 51 150 1.0 4.0 0.05 1.78 1.60 98 1015.3
20260506161049 51 109 1.0 4.0 0.05 1.78 1.60 98 1015.4
20260506160549 51 165 1.0 6.0 0.05 1.78 1.60 98 1015.2
20260506160106 51 163 2.0 6.0 0.05 1.78 1.60 97 1015.1
20260506155548 52 117 1.0 5.0 0.05 2.09 1.60 97 1015.2
20260506155050 52 193 1.0 5.0 0.05 2.08 1.59 97 1015.0
20260506154600 52 109 2.0 5.0 0.06 2.08 1.59 98 1015.2
20260506154049 52 127 0.0 5.0 0.06 2.08 1.58 99 1015.5
20260506153548 52 153 2.0 5.0 0.07 2.08 1.58 98 1014.6
20260506153057 52 200 1.0 5.0 0.08 2.07 1.57 98 1015.3
20260506152548 52 119 1.0 4.0 0.08 2.07 1.57 98 1015.1
20260506152048 51 129 1.0 3.0 0.09 2.06 1.56 98 1014.6
20260506151559 51 119 1.0 3.0 0.10 2.05 1.55 98 1015.3
20260506151049 51 162 1.0 2.0 0.12 2.05 1.55 98 1015.2
20260506150552 52 145 0.0 2.0 0.14 2.05 1.55 98 1015.3
20260506150105 52 122 0.0 3.0 0.15 2.05 1.55 98 1015.4
20260506145553 51 129 1.0 4.0 0.15 2.28 1.55 98 1015.1
20260506145048 52 120 0.0 4.0 0.15 2.27 1.54 98 1015.4
20260506144602 51 0 1.0 4.0 0.15 2.26 1.53 98 1014.9
20260506144051 51 105 0.0 3.0 0.14 2.25 1.52 98 1015.1
20260506143551 51 167 1.0 4.0 0.13 2.24 1.51 98 1014.7
20260506143058 52 174 0.0 4.0 0.11 2.22 1.49 98 1015.0
20260506142548 52 169 1.0 4.0 0.11 2.22 1.49 98 1015.1
20260506142053 52 0 0.0 2.0 0.09 2.20 1.47 98 1014.7
20260506141559 52 148 0.0 2.0 0.07 2.18 1.45 97 1014.2
20260506141051 52 146 0.0 5.0 0.05 2.16 1.43 98 1015.0
20260506140553 52 176 1.0 5.0 0.03 2.14 1.41 97 1014.8
20260506140056 52 264 2.0 5.0 0.02 2.13 1.40 97 1014.2
20260506135551 52 103 0.0 3.0 0.02 2.24 1.40 97 1014.8
20260506135051 52 0 1.0 3.0 0.01 2.23 1.39 97 1014.6
20260506134614 52 179 0.0 2.0 0.00 2.22 1.38 98 1013.9
20260506134053 52 131 0.0 2.0 0.00 2.22 1.38 97 1014.0
20260506133551 52 141 1.0 2.0 0.00 2.22 1.38 97 1014.4
20260506133054 52 155 0.0 2.0 0.00 2.22 1.38 97 1014.0
20260506132551 52 0 0.0 3.0 0.00 2.22 1.38 98 1014.0
20260506132051 52 105 0.0 3.0 0.00 2.22 1.38 98 1014.2
20260506131607 52 0 1.0 5.0 0.00 2.22 1.38 98 1013.8
20260506131049 52 132 1.0 5.0 0.00 2.22 1.38 98 1013.5
20260506130552 52 103 1.0 5.0 0.00 2.22 1.38 98 1013.7
20260506130055 52 139 0.0 4.0 0.00 2.22 1.38 98 1013.8
20260506125551 52 153 1.0 4.0 0.00 2.22 1.38 98 1013.8
20260506125051 52 139 2.0 4.0 0.00 2.22 1.38 98 1013.2
20260506124553 52 162 0.0 3.0 0.00 2.22 1.38 98 1012.6
20260506124051 52 179 0.0 4.0 0.00 2.22 1.38 98 1013.0
20260506123552 51 0 1.0 4.0 0.00 2.22 1.38 98 1012.6
20260506123053 51 165 1.0 4.0 0.00 2.22 1.38 98 1012.6
20260506122551 51 155 1.0 3.0 0.00 2.22 1.38 98 1012.8
20260506122051 51 175 0.0 3.0 0.00 2.22 1.38 98 1012.7
20260506121549 51 119 0.0 3.0 0.00 2.22 1.38 98 1012.6
20260506121051 51 153 0.0 3.0 0.00 2.22 1.38 98 1012.6
20260506120549 51 153 1.0 3.0 0.00 2.22 1.38 98 1012.3
20260506120052 51 114 1.0 3.0 0.01 2.22 1.38 98 1012.2
20260506115551 51 139 1.0 5.0 0.02 2.22 1.38 98 1012.0
20260506115048 51 115 1.0 5.0 0.03 2.22 1.38 98 1012.1
20260506114554 51 149 1.0 5.0 0.05 2.22 1.38 98 1012.2
20260506114052 51 0 0.0 5.0 0.08 2.22 1.38 98 1012.3
20260506113551 51 96 1.0 5.0 0.08 2.22 1.38 98 1012.2
20260506113051 51 121 1.0 3.0 0.09 2.22 1.38 98 1011.9
20260506112551 51 162 1.0 4.0 0.12 2.22 1.38 98 1011.8
20260506112051 51 140 1.0 4.0 0.14 2.22 1.38 98 1011.5
20260506111608 51 173 1.0 5.0 0.17 2.22 1.38 98 1011.6
20260506111051 51 139 1.0 5.0 0.18 2.22 1.38 98 1011.8
20260506110553 51 77 1.0 5.0 0.21 2.22 1.38 98 1011.7
20260506110055 51 91 2.0 5.0 0.22 2.21 1.37 98 1011.7
20260506105548 51 139 1.0 5.0 0.23 2.20 1.36 98 1011.8
20260506105051 51 103 1.0 5.0 0.24 2.19 1.35 98 1010.7
20260506104554 51 172 1.0 5.0 0.23 2.17 1.33 98 1012.2
20260506104055 51 125 1.0 4.0 0.22 2.14 1.30 98 1012.7
20260506103551 52 181 1.0 4.0 0.23 2.14 1.30 98 1012.1
20260506103051 52 82 0.0 6.0 0.22 2.11 1.28 98 1011.6
20260506102552 52 110 1.0 6.0 0.21 2.09 1.26 98 1012.0
20260506102056 52 99 2.0 6.0 0.19 2.08 1.24 98 1012.0
20260506101554 52 0 1.0 5.0 0.17 2.05 1.21 98 1011.7
20260506101051 52 193 1.0 5.0 0.15 2.03 1.19 98 1012.5
20260506100551 52 134 0.0 6.0 0.13 2.01 1.16 98 1012.0
20260506100053 52 92 1.0 6.0 0.11 1.99 1.15 98 1011.5
20260506095551 52 79 2.0 6.0 0.10 1.97 1.13 98 1011.2
20260506095050 52 167 1.0 6.0 0.08 1.95 1.11 98 1011.0
20260506094552 52 146 0.0 6.0 0.07 1.94 1.10 98 1011.6
20260506094049 52 134 2.0 6.0 0.05 1.92 1.08 98 1011.3
20260506093554 52 196 1.0 4.0 0.04 1.91 1.07 98 1010.9
20260506093057 52 139 1.0 5.0 0.05 1.90 1.05 98 1010.8
20260506092550 53 129 0.0 7.0 0.19 1.89 1.04 98 1011.2
20260506092055 52 54 3.0 7.0 0.22 1.89 1.04 98 1009.7
20260506091552 53 98 2.0 7.0 0.30 1.88 1.04 98 1010.2
20260506091051 53 185 1.0 4.0 0.41 1.88 1.04 98 1010.4
20260506090552 53 114 0.0 4.0 0.50 1.88 1.04 98 1010.7
20260506090054 53 106 1.0 4.0 0.52 1.88 1.04 98 1010.2
20260506085551 53 190 1.0 4.0 0.57 1.87 1.03 98 1010.0
20260506085051 53 178 1.0 6.0 0.61 1.87 1.03 98 1010.3
20260506084553 53 134 0.0 7.0 0.62 1.87 1.03 98 1009.6
20260506084053 53 161 1.0 7.0 0.64 1.87 1.03 98 1009.4
20260506083551 53 197 2.0 6.0 0.64 1.87 1.03 98 1009.2
20260506083109 53 187 1.0 4.0 0.62 1.84 1.00 97 1009.1
20260506082548 53 128 2.0 7.0 0.49 1.70 0.86 97 1009.8
20260506082054 53 95 1.0 8.0 0.46 1.67 0.83 97 1009.7
20260506081552 53 142 3.0 8.0 0.36 1.57 0.73 97 1011.0
20260506081052 53 167 3.0 7.0 0.24 1.45 0.61 97 1010.4
20260506080552 54 172 2.0 8.0 0.17 1.38 0.54 97 1010.0
20260506073054 55 201 2.0 9.0 0.27 1.22 0.38 96 1009.8
20260506072551 55 101 2.0 4.0 0.29 1.21 0.37 96 1009.4
20260506072049 55 129 1.0 4.0 0.29 1.21 0.37 96 1009.2
20260506071555 55 174 0.0 7.0 0.31 1.21 0.37 95 1009.1
20260506071052 55 129 1.0 7.0 0.37 1.21 0.37 95 1009.3
20260506070552 56 180 3.0 9.0 0.37 1.21 0.37 94 1009.4
20260506070126 57 134 2.0 11.0 0.34 1.17 0.34 93 1009.3
20260506062051 67 79 2.0 27.0 0.08 0.92 0.08 91 1008.4
20260506061553 68 128 9.0 27.0 0.06 0.90 0.06 88 1008.0
20260506061051 70 75 5.0 12.0 0.00 0.84 0.00 90 1006.9
20260506060552 70 51 4.0 11.0 0.00 0.84 0.00 90 1006.9
20260506051052 69 108 4.0 9.0 0.00 0.84 0.00 90 1007.2
20260506050552 69 134 3.0 9.0 0.00 0.84 0.00 90 1007.5
20260506050108 69 129 3.0 11.0 0.00 0.84 0.00 91 1007.3
20260506045052 69 315 2.0 8.0 0.00 0.84 0.84 91 1007.3
20260506044557 69 81 3.0 8.0 0.00 0.84 0.84 91 1007.3
20260506044052 69 16 1.0 7.0 0.00 0.84 0.84 91 1007.6
20260506043551 69 316 2.0 7.0 0.00 0.84 0.84 91 1008.0
20260506043056 69 77 2.0 7.0 0.00 0.84 0.84 91 1007.8
20260506042551 69 327 2.0 6.0 0.00 0.84 0.84 91 1007.8
20260506042050 69 276 3.0 6.0 0.00 0.84 0.84 90 1007.8
20260506041557 69 74 2.0 6.0 0.00 0.84 0.84 91 1007.9
20260506041052 69 56 2.0 4.0 0.00 0.84 0.84 91 1008.0
20260506040554 68 49 1.0 6.0 0.00 0.84 0.84 91 1008.0
20260506040052 68 64 2.0 6.0 0.00 0.84 0.84 91 1008.2
20260506035553 68 76 2.0 5.0 0.00 0.84 0.84 91 1008.5
20260506035051 68 32 1.0 6.0 0.00 0.84 0.84 91 1008.6
20260506034558 68 352 2.0 6.0 0.00 0.84 0.84 91 1008.3
20260506034048 68 49 1.0 5.0 0.00 0.84 0.84 91 1008.5
20260506033548 68 45 0.0 4.0 0.00 0.84 0.84 91 1008.6
20260506033053 68 93 1.0 6.0 0.00 0.84 0.84 91 1008.4
20260506032548 68 65 2.0 6.0 0.00 0.84 0.84 91 1008.3
20260506032050 68 87 2.0 6.0 0.00 0.84 0.84 91 1008.3
20260506031552 68 20 2.0 6.0 0.00 0.84 0.84 91 1008.3
20260506031052 68 69 2.0 7.0 0.00 0.84 0.84 91 1008.3
20260506030551 68 69 2.0 7.0 0.00 0.84 0.84 91 1008.3
20260506030054 68 109 2.0 8.0 0.00 0.84 0.84 91 1008.2
20260506025551 68 33 2.0 8.0 0.00 0.84 0.84 91 1008.3
20260506025051 68 287 3.0 8.0 0.00 0.84 0.84 92 1008.3
20260506024601 68 23 2.0 7.0 0.00 0.84 0.84 92 1008.6
20260506024051 68 343 2.0 7.0 0.00 0.84 0.84 92 1008.6
20260506023551 68 339 2.0 9.0 0.00 0.84 0.84 92 1008.5
20260506023056 68 330 3.0 9.0 0.00 0.84 0.84 92 1008.5
20260506022548 68 28 3.0 7.0 0.00 0.84 0.84 92 1008.3
20260506022048 68 56 2.0 5.0 0.00 0.84 0.84 93 1008.3
20260506021554 68 77 2.0 5.0 0.00 0.84 0.84 93 1008.3
20260506021048 68 68 1.0 4.0 0.00 0.84 0.84 93 1008.2
20260506020551 68 66 1.0 5.0 0.00 0.84 0.84 93 1008.3
20260506020110 68 67 1.0 5.0 0.00 0.84 0.84 93 1008.3
20260506015552 68 60 1.0 5.0 0.00 0.84 0.84 93 1008.0
20260506015052 68 82 1.0 5.0 0.00 0.84 0.84 93 1008.1
20260506014609 68 321 1.0 8.0 0.00 0.84 0.84 93 1008.1
20260506014051 68 64 2.0 8.0 0.00 0.84 0.84 94 1008.1
20260506013551 68 84 2.0 8.0 0.00 0.84 0.84 94 1008.1
20260506013052 68 48 2.0 7.0 0.00 0.84 0.84 94 1008.0
20260506012551 68 317 3.0 7.0 0.00 0.84 0.84 94 1007.8
20260506012051 68 84 2.0 7.0 0.00 0.84 0.84 94 1007.8
20260506011616 68 321 2.0 7.0 0.00 0.84 0.84 95 1007.9
20260506011051 68 20 2.0 5.0 0.00 0.84 0.84 95 1008.0
20260506010551 68 77 1.0 4.0 0.00 0.84 0.84 95 1007.9
20260506010052 68 58 1.0 7.0 0.00 0.84 0.84 95 1007.8
20260506005552 68 285 2.0 7.0 0.00 0.84 0.84 94 1007.7
20260506005051 68 9 2.0 8.0 0.00 0.84 0.84 94 1007.5
20260506004602 68 25 2.0 8.0 0.00 0.84 0.84 94 1007.7
20260506004051 68 71 2.0 8.0 0.00 0.84 0.84 94 1007.9
20260506003551 68 88 2.0 5.0 0.00 0.84 0.84 94 1007.7
20260506003053 68 32 2.0 4.0 0.00 0.84 0.84 94 1008.0
20260506002553 68 33 2.0 4.0 0.00 0.84 0.84 94 1008.0
20260506002048 68 70 1.0 5.0 0.00 0.84 0.84 94 1008.2
20260506001556 68 48 1.0 5.0 0.00 0.84 0.84 94 1007.8
20260506001051 68 347 2.0 7.0 0.00 0.84 0.84 94 1007.5
20260506000554 68 41 2.0 7.0 0.00 0.84 0.84 94 1007.6
20260506000118 68 300 3.0 7.0 0.00 0.84 0.84 94 1007.4
20260505235554 68 91 2.0 7.0 0.00 0.84 0.84 94 1007.4
20260505235052 68 95 2.0 7.0 0.00 0.84 0.84 94 1007.6
20260505234554 68 66 2.0 7.0 0.00 0.84 0.84 94 1007.9
20260505234052 68 51 1.0 5.0 0.00 0.84 0.84 94 1007.9
20260505233553 68 311 1.0 7.0 0.00 0.84 0.84 94 1007.9
20260505233057 68 26 2.0 7.0 0.00 0.84 0.84 94 1007.9
20260505232551 68 86 1.0 4.0 0.00 0.84 0.84 94 1007.8
20260505232053 68 72 2.0 5.0 0.00 0.84 0.84 94 1007.9
20260505231604 68 60 1.0 7.0 0.00 0.84 0.84 94 1008.0
20260505231052 68 80 1.0 7.0 0.00 0.84 0.84 94 1008.0
20260505230552 68 83 1.0 4.0 0.00 0.84 0.84 94 1008.0
20260505230106 68 44 2.0 4.0 0.00 0.84 0.84 94 1008.0
20260505225548 68 83 1.0 4.0 0.00 0.84 0.84 94 1008.0
20260505225052 68 78 1.0 5.0 0.00 0.84 0.84 94 1008.0
20260505224557 68 304 2.0 5.0 0.00 0.84 0.84 94 1008.0
20260505224051 67 47 1.0 5.0 0.00 0.84 0.84 94 1008.0
20260505223556 67 27 2.0 5.0 0.00 0.84 0.84 94 1007.9
20260505223055 67 39 2.0 6.0 0.00 0.84 0.84 94 1007.9
20260505222551 67 44 2.0 6.0 0.00 0.84 0.84 95 1007.6
20260505222053 67 32 1.0 7.0 0.00 0.84 0.84 95 1007.7
20260505221559 67 31 2.0 7.0 0.00 0.84 0.84 95 1008.0
20260505221052 66 43 1.0 5.0 0.00 0.84 0.84 96 1008.0
20260505220550 66 316 2.0 5.0 0.00 0.84 0.84 96 1008.1
20260505220059 66 19 2.0 7.0 0.00 0.84 0.84 96 1008.3
20260505215548 66 51 1.0 7.0 0.00 0.84 0.84 96 1008.3
20260505215048 66 86 2.0 5.0 0.00 0.84 0.84 96 1008.3
20260505214553 66 30 2.0 4.0 0.00 0.84 0.84 96 1008.5
20260505214051 65 344 1.0 5.0 0.00 0.84 0.84 96 1008.5
20260505213552 65 56 2.0 5.0 0.00 0.84 0.84 96 1008.6
20260505213057 65 47 1.0 5.0 0.00 0.84 0.84 96 1008.6
20260505212554 65 331 2.0 5.0 0.00 0.84 0.84 96 1008.6
20260505212052 65 81 0.0 3.0 0.00 0.84 0.84 96 1008.6
20260505211610 65 107 1.0 5.0 0.00 0.84 0.84 96 1008.7
20260505211052 65 66 2.0 7.0 0.00 0.84 0.84 96 1008.7
20260505210551 65 11 2.0 7.0 0.00 0.84 0.84 96 1008.7
20260505210058 65 110 3.0 7.0 0.00 0.84 0.84 96 1008.8
20260505205551 65 105 3.0 7.0 0.00 0.84 0.84 96 1008.8
20260505205052 65 299 2.0 8.0 0.00 0.84 0.84 96 1008.8
20260505204604 65 39 3.0 8.0 0.00 0.84 0.84 96 1008.9
20260505204048 65 72 3.0 8.0 0.00 0.84 0.84 96 1008.9
20260505203551 65 356 2.0 7.0 0.00 0.84 0.84 96 1008.8
20260505203103 65 89 2.0 7.0 0.00 0.84 0.84 96 1008.9
20260505202548 65 46 3.0 7.0 0.00 0.84 0.84 96 1008.9
20260505202048 65 34 2.0 7.0 0.00 0.84 0.84 96 1009.0
20260505201600 65 26 3.0 7.0 0.00 0.84 0.84 96 1009.0
20260505201052 65 338 2.0 7.0 0.00 0.84 0.84 96 1009.1
20260505200552 65 65 2.0 7.0 0.00 0.84 0.84 95 1009.0
20260505200055 65 84 3.0 7.0 0.00 0.84 0.84 95 1009.1
20260505195551 65 50 2.0 7.0 0.00 0.84 0.84 95 1009.1
20260505195051 65 63 2.0 8.0 0.00 0.84 0.84 96 1009.1
20260505194617 65 34 3.0 8.0 0.00 0.84 0.84 95 1009.0
20260505194051 65 46 2.0 10.0 0.00 0.84 0.84 96 1009.0
20260505193551 65 83 2.0 10.0 0.00 0.84 0.84 96 1009.1
20260505193106 64 65 3.0 10.0 0.00 0.84 0.84 96 1009.1
20260505192558 64 85 2.0 7.0 0.00 0.84 0.84 96 1009.2
20260505192052 64 88 2.0 8.0 0.00 0.84 0.84 96 1009.3
20260505191606 64 44 3.0 8.0 0.00 0.84 0.84 96 1009.4